Flag for Canada Weather past 2 weeks in Kugluktuk, Nunavut Territory, Canada

Now
50 °F

Broken clouds.


Feels Like: 48 °F
Forecast: 46 / 70 °F
Wind: 6 mph from Southwest

Location: Coppermine

Current Time: Jul 22, 2014 at 3:17:18 AM

Latest Report: Jul 22, 2014 at 2:00 AM


Visibility: 15 mi

Pressure: 29.94 "Hg

Humidity: 88%

Dew point: 46 °F

Location of KugluktukLocation

Historic Weather in Kugluktuk — Graph

°F

Kugluktuk temperature yesterday

Maximum temperature yesterday: 59 °F (at 10:00 AM)
Minimum temperature yesterday: 50 °F (at 4:00 AM)
Average temperature yesterday: 54 °F

Past Weeks' High & Low Weather Summary

 TemperatureHumidityPressure
High81 °F (Jul 13, 3:00 PM)100% (Jul 15, 4:00 AM)30.15 "Hg (Jul 15, 4:00 AM)
Low39 °F (Jul 17, 7:00 AM)25% (Jul 12, 4:00 PM)29.59 "Hg (Jul 19, 12:00 PM)
Average53 °F69%29.87 "Hg
* Reported Jul 7 2:00 AM — Jul 22 2:00 AM, Kugluktuk, Weather by CustomWeather, © 2014

Note: Actual official high and low records may vary slightly from our data, if they occured in-between our weather recording intervals... More about our weather records

Advertising

Kugluktuk weather history for previous 24 hours

 ConditionsComfort  
Time TempWeatherWind HumidityBarometerVisibility
2:00 AM
Jul 22
50 °FBroken clouds.6 mph88%29.94 "Hg15 mi
1:00 AM50 °FPartly sunny.6 mph94%29.94 "Hg15 mi
12:00 AM50 °FPartly sunny.3 mph88%29.93 "Hg15 mi
11:00 PM
Jul 21
54 °FPartly sunny.No wind77%29.93 "Hg15 mi
10:00 PM55 °FPartly sunny.3 mph72%29.92 "Hg15 mi
9:00 PM54 °FMostly cloudy.No wind77%29.91 "Hg15 mi
8:00 PM54 °FCloudy.8 mph82%29.91 "Hg15 mi
7:00 PM54 °FScattered showers. Broken clouds.12 mph82%29.89 "Hg15 mi
6:00 PM55 °FLight rain. Mostly cloudy.13 mph82%29.88 "Hg15 mi
5:00 PM55 °FLight rain. Mostly cloudy.14 mph82%29.85 "Hg15 mi
4:00 PM57 °FScattered showers. Cloudy.17 mph72%29.82 "Hg15 mi
3:00 PM59 °FBroken clouds.13 mph68%29.80 "Hg15 mi
2:00 PM57 °FBroken clouds.12 mph72%29.77 "Hg15 mi
1:00 PM57 °FPartly sunny.7 mph72%29.77 "Hg15 mi
12:00 PM55 °FPartly sunny.5 mph77%29.76 "Hg15 mi
11:00 AM57 °FPartly sunny.5 mph72%29.76 "Hg15 mi
10:00 AM59 °FPartly sunny.3 mph59%29.76 "Hg15 mi
9:00 AM55 °FBroken clouds.No wind67%29.77 "Hg15 mi
8:00 AM54 °FPartly sunny.No wind72%29.76 "Hg15 mi
7:00 AM52 °FPartly sunny.No wind72%29.76 "Hg15 mi
6:00 AM52 °FPassing clouds.No wind77%29.75 "Hg15 mi
5:00 AM50 °FPassing clouds.6 mph71%29.74 "Hg15 mi
4:00 AM50 °FPassing clouds.10 mph71%29.73 "Hg15 mi
3:00 AM52 °FPassing clouds.9 mph62%29.73 "Hg15 mi
Weather by CustomWeather, © 2014

See weather overviewHow to use our weather pages